SQ2CET-13 Weather Reports


Display with metric or nautical units.
time (UTC)temp
F
wind
direction
speed
MPH
gust
MPH
rain 1hr
in
rain 24hr
in
rain mn
in
humidity
%
barometer
mb
20260504110111 67 253 5.0 15.0 0.00 0.00 0.00 66 1011.9
20260504100137 68 236 2.0 8.0 0.00 0.00 0.00 66 1012.2
20260504090114 65 267 3.0 8.0 0.00 0.00 0.00 70 1011.5
20260504081058 64 238 7.0 15.0 0.00 0.00 0.00 70 1011.7
20260504045107 61 252 2.0 8.0 0.00 0.00 0.00 58 1010.2
20260504044027 61 227 2.0 4.0 0.00 0.00 0.00 58 1010.1
20260504043052 61 198 1.0 4.0 0.00 0.00 0.00 58 1010.2
20260504042114 60 208 1.0 4.0 0.00 0.00 0.00 58 1010.4
20260504041054 60 220 2.0 4.0 0.00 0.00 0.00 58 1010.3
20260504040057 60 222 2.0 5.0 0.00 0.00 0.00 57 1010.2
20260504035018 59 214 2.0 5.0 0.00 0.00 0.00 58 1010.2
20260504034042 60 213 1.0 5.0 0.00 0.00 0.00 57 1010.1
20260504033106 59 218 1.0 5.0 0.00 0.00 0.00 59 1010.0
20260504032018 59 229 2.0 6.0 0.00 0.00 0.00 59 1010.1
20260504031042 59 217 1.0 5.0 0.00 0.00 0.00 60 1010.1
20260504030107 59 206 3.0 5.0 0.00 0.00 0.00 60 1010.0
20260504025026 59 209 2.0 5.0 0.00 0.00 0.00 60 1010.1
20260504024051 59 154 2.0 4.0 0.00 0.00 0.00 60 1010.2
20260504023115 59 202 3.0 5.0 0.00 0.00 0.00 60 1010.2
20260504022034 59 185 2.0 4.0 0.00 0.00 0.00 61 1010.2
20260504021058 59 185 2.0 3.0 0.00 0.00 0.00 60 1010.3
20260504020018 59 183 0.0 3.0 0.00 0.00 0.00 59 1010.4
20260504015042 60 222 2.0 4.0 0.00 0.00 0.00 57 1010.2
20260504014106 61 266 1.0 3.0 0.00 0.00 0.00 57 1010.2
20260504013026 61 220 3.0 5.0 0.00 0.00 0.00 56 1010.2
20260504012050 62 309 1.0 2.0 0.00 0.00 0.00 55 1010.1
20260504011134 63 212 2.0 5.0 0.00 0.00 0.00 51 1010.1
20260504010034 63 199 2.0 5.0 0.00 0.00 0.00 51 1010.2
20260504005059 63 147 1.0 3.0 0.00 0.00 0.00 51 1010.3
20260504004018 63 16 0.0 2.0 0.00 0.00 0.00 51 1010.4
20260504003042 65 213 1.0 3.0 0.00 0.00 0.00 49 1010.4
20260504002106 65 186 1.0 4.0 0.00 0.00 0.00 48 1010.5
20260504001026 66 215 1.0 5.0 0.00 0.00 0.00 48 1010.6
20260504000051 65 119 1.0 3.0 0.00 0.00 0.00 48 1010.6
20260503235115 66 70 1.0 3.0 0.00 0.00 0.00 49 1010.7
20260503234054 66 64 1.0 4.0 0.00 0.00 0.00 49 1010.8
20260503233058 65 40 2.0 4.0 0.00 0.00 0.00 51 1011.1
20260503232038 65 36 1.0 3.0 0.00 0.00 0.00 53 1011.1
20260503231042 65 216 1.0 3.0 0.00 0.00 0.00 54 1011.2
20260503230051 65 44 1.0 5.0 0.00 0.00 0.00 55 1011.3
20260503225115 65 47 3.0 5.0 0.00 0.00 0.00 55 1011.4
20260503224034 64 200 2.0 5.0 0.00 0.00 0.00 58 1011.5
20260503223057 64 194 1.0 4.0 0.00 0.00 0.00 58 1011.6
20260503222019 64 238 1.0 2.0 0.00 0.00 0.00 59 1011.6
20260503221042 63 194 0.0 2.0 0.00 0.00 0.00 61 1011.6
20260503220107 63 141 0.0 2.0 0.00 0.00 0.00 62 1011.9
20260503215026 63 0.0 1.0 0.00 0.00 0.00 62 1011.9
20260503214050 63 160 0.0 2.0 0.00 0.00 0.00 62 1012.0
20260503213114 62 357 0.0 2.0 0.00 0.00 0.00 64 1012.2
20260503212034 63 193 1.0 3.0 0.00 0.00 0.00 63 1012.3
20260503211059 62 30 1.0 3.0 0.00 0.00 0.00 66 1012.2
20260503210019 61 92 1.0 2.0 0.00 0.00 0.00 68 1012.6
20260503205044 61 69 1.0 3.0 0.00 0.00 0.00 69 1012.3
20260503204106 62 51 2.0 4.0 0.00 0.00 0.00 67 1012.4
20260503203026 62 314 2.0 6.0 0.00 0.00 0.00 63 1013.5
20260503202051 61 245 5.0 14.0 0.00 0.00 0.00 66 1013.4
20260503201115 61 0.0 0.0 0.00 0.00 0.00 65 1012.4
20260503200034 61 0.0 0.0 0.00 0.00 0.00 65 1012.4
20260503195059 60 0.0 0.0 0.00 0.00 0.00 65 1012.6
20260503194114 61 0.0 0.0 0.00 0.00 0.00 65 1012.5
20260503193034 62 0.0 1.0 0.00 0.00 0.00 61 1012.6
20260503192058 63 0.0 0.0 0.00 0.00 0.00 62 1012.6
20260503191114 62 0.0 0.0 0.00 0.00 0.00 64 1012.6
20260503190034 63 0.0 0.0 0.00 0.00 0.00 62 1012.6
20260503185059 63 0.0 0.0 0.00 0.00 0.00 62 1012.4
20260503184122 64 0.0 0.0 0.00 0.00 0.00 60 1012.3
20260503183026 66 0.0 0.0 0.00 0.00 0.00 58 1012.2
20260503182050 68 0.0 1.0 0.00 0.00 0.00 53 1012.2
20260503181114 69 0.0 0.0 0.00 0.00 0.00 47 1012.2
20260503180034 70 0.0 0.0 0.00 0.00 0.00 45 1012.1
20260503175101 71 0.0 0.0 0.00 0.00 0.00 44 1012.1
20260503174019 73 0.0 3.0 0.00 0.00 0.00 42 1012.1
20260503173042 75 294 1.0 3.0 0.00 0.00 0.00 39 1012.1
20260503172106 75 356 2.0 4.0 0.00 0.00 0.00 39 1012.0
20260503171027 73 351 2.0 5.0 0.00 0.00 0.00 41 1012.1
20260503160107 80 350 2.0 5.0 0.00 0.00 0.00 33 1012.2
20260503150109 83 352 2.0 5.0 0.00 0.00 0.00 31 1012.3
20260503140147 82 19 2.0 5.0 0.00 0.00 0.00 31 1012.5
20260503131028 81 347 2.0 11.0 0.00 0.00 0.00 31 1012.8
20260503130111 83 306 2.0 10.0 0.00 0.00 0.00 25 1012.8